Weather in Saskatoon

Canada     52°09′04″N   106°38′49″W
temp.,
°C
wind,
m/s
gust,
m/s
humid.,
%
clouds,
%
prec.,
mm/h
press.,
hPa
HPBL,
m
20 may, fri
fri2000:00+4nne71564100 0.7 1010758
03:00+1nnw5117969 0.0 1013309
06:000nnw6126988 0.0 1015668
09:00+3n9116196 0.0 10161394
12:00+4n81065100 0.1 10171482
15:00+4n81060100 0.3 10191562
18:00+6n6958100 0.6 10191465
21:00+4nw3364100 0.1 102147
21 may, sat
sat2100:00+3wnw4767100 0.1 1022125
03:00+2nw3564100 0.0 102371
06:00+1nw376032 0.0 1025135
09:00+7nnw36475 0.0 1025581
12:00+11n453549 0.0 10242216
15:00+13nnw4533100 0.0 10222441
18:00+13nnw453378 0.0 10222292
21:00+10nw224894 0.0 102217
22 may, sun
sun2200:00+7wnw225418 0.0 102320
03:00+5w22585 0.0 102316
06:00+5sw236065 0.0 102338
09:00+11sw35449 0.0 1021566
12:00+14wsw5630100 0.0 10192607
15:00+16wsw672695 0.0 10172898
18:00+16wsw672645 0.0 10152821
21:00+11ssw344274 0.0 101548
23 may, mon
mon2300:00+9ssw4114498 0.0 1015211
03:00+8sw510595 0.0 1014170
06:00+7wsw3577100 0.0 1014103
09:00+12nw456486 0.0 1013660
12:00+15nw3554100 0.1 10121550
15:00+17nw354795 0.3 10111785
18:00+15nne4458100 0.6 1011515
21:00+11e3481100 1.4 101172
24 may, tue
tue2400:00+10se368187 1.8 1011109
03:00+9ese3787100 0.2 1011128
06:00+9ese368870 0.2 1011128
09:00+15sse235711 0.0 1009321
12:00+21se333619 0.0 10091194
15:00+23s352577 0.0 10073026
18:00+17e455747 0.4 1008242
21:00+14ssw61072100 0.2 1010249